Theta_e
340 345 345 348 351 351 350 352 353 353 353 352 351 351 350 350 351 350 352 352 353 353 352 351 352 352 351 352 351 351 351 351 350 350 348 347 348 347 348 348 348 348 347 347 344 344 344 344 343 343 343 344 346 346 346 347 347 347 347 347 346 346 346 346 347 347 347 348 349 349 348 350 351 351 350 348 350 349 347 347 346 343 345 346 348
340 344 347 348 350 352 351 352 353 352 352 352 351 350 350 350 350 352 352 352 352 352 352 352 351 351 351 351 351 351 351 351 350 350 349 349 348 348 347 347 347 347 347 348 345 343 342 342 342 342 341 341 342 344 345 345 345 345 345 345 346 346 346 346 346 346 346 347 347 347 347 348 348 348 348 348 348 347 345 346 345 343 343 348 349
343 347 347 348 349 351 352 351 351 353 352 352 351 350 350 349 350 350 351 352 352 351 350 350 351 351 351 351 350 351 351 350 349 349 348 348 347 347 347 347 347 347 347 347 345 344 342 340 340 339 339 339 339 341 343 344 343 344 344 343 344 345 345 345 346 347 346 346 345 345 344 346 347 347 347 347 346 346 344 345 345 344 343 348 347
344 347 347 348 347 348 352 353 352 352 352 351 350 350 349 349 349 349 349 349 349 349 349 349 351 351 351 351 350 350 350 350 350 349 348 348 348 347 346 346 346 346 345 345 344 343 341 340 339 338 336 337 338 340 341 341 342 343 343 343 343 344 345 345 346 346 345 345 344 342 342 340 342 345 345 346 346 345 342 343 343 344 345 345 347
346 348 347 348 348 347 351 352 351 352 351 351 350 349 349 349 349 349 349 349 348 348 347 348 350 349 349 350 350 349 350 349 349 349 348 348 347 346 346 346 346 346 345 345 344 342 341 339 338 336 336 336 337 338 339 340 341 342 341 342 342 343 345 345 346 346 345 344 342 340 338 339 339 343 344 344 344 342 341 341 342 343 343 343 344
346 348 347 347 347 347 348 351 351 352 351 351 350 349 349 348 349 349 349 348 348 348 347 347 348 349 349 349 349 349 349 349 348 347 347 348 347 346 346 346 346 346 345 345 343 341 339 339 337 336 336 336 336 337 338 339 339 339 340 342 343 344 343 343 344 344 343 342 341 338 338 338 338 340 345 343 342 340 340 341 341 342 341 341 342
347 347 347 347 347 345 346 351 351 350 351 351 350 349 349 348 349 349 348 347 347 347 347 347 347 348 348 348 348 348 348 349 349 348 348 348 347 346 346 345 346 345 346 345 342 340 339 338 336 335 337 336 336 337 337 337 338 339 341 342 342 342 342 342 342 342 340 338 336 337 337 337 337 338 343 343 342 339 339 340 340 340 341 340 340
345 347 347 347 346 345 347 350 351 351 351 351 350 349 349 349 349 349 348 347 347 347 347 346 347 348 347 347 348 347 348 349 348 348 347 346 346 345 345 345 345 346 345 344 341 339 337 337 336 336 337 336 336 336 337 337 338 339 340 341 341 341 341 341 341 340 339 336 336 336 337 336 336 337 343 342 341 339 338 337 337 337 338 340 338
344 346 347 346 346 344 347 349 351 350 351 351 350 350 349 349 350 349 348 347 347 346 346 346 346 347 347 347 347 347 347 348 348 347 347 346 345 345 344 345 345 345 345 343 340 338 336 335 335 337 337 336 335 336 336 337 338 339 340 340 340 341 340 340 340 339 338 337 336 336 336 336 335 335 342 342 340 340 337 334 334 335 335 335 337
343 346 346 346 345 343 345 349 350 350 350 350 350 349 349 349 349 348 347 347 346 346 346 346 346 346 347 347 346 346 347 347 348 347 346 346 345 344 345 344 344 344 342 341 339 337 335 334 334 335 335 335 334 334 335 337 338 338 339 339 340 340 339 339 338 337 336 336 336 336 337 340 334 335 340 342 339 337 336 334 333 333 333 333 333
342 344 345 345 345 343 348 350 350 350 349 350 350 350 350 349 349 348 347 347 346 346 345 346 346 346 346 347 347 347 346 347 347 345 345 345 345 344 344 343 343 341 340 339 339 337 335 334 334 334 334 334 333 333 334 336 337 337 338 339 338 337 336 335 334 332 333 333 333 333 338 340 332 331 339 340 338 336 334 334 332 332 333 333 333
340 343 343 343 344 343 347 349 350 350 350 351 350 350 350 349 350 348 347 347 347 346 346 346 346 346 347 348 348 347 347 346 345 345 345 344 344 344 343 343 341 340 339 338 337 336 333 332 333 333 333 332 333 333 334 336 336 336 336 336 335 335 334 332 328 329 330 330 330 331 330 332 333 336 339 339 339 337 334 334 332 333 333 333 333
341 343 343 343 343 341 345 348 348 349 350 351 349 350 350 349 349 349 348 347 347 346 346 346 346 346 347 347 347 346 346 346 346 345 344 344 343 343 343 342 340 339 338 337 335 334 332 330 331 332 332 331 332 333 334 335 334 334 335 335 334 333 332 331 327 327 327 327 328 328 329 329 331 339 339 338 337 336 334 334 333 333 333 332 333
344 345 346 346 344 343 342 345 346 349 349 350 349 350 349 349 348 348 348 347 347 346 346 346 347 347 347 347 346 346 345 346 345 345 344 344 343 343 343 341 340 339 338 336 334 331 329 329 329 330 330 330 331 332 333 333 333 334 334 333 332 331 328 328 328 325 325 326 327 328 328 330 330 337 339 338 337 335 334 333 333 332 332 332 332
344 344 344 345 345 343 341 341 343 345 346 348 349 348 350 348 348 349 348 348 348 347 347 347 347 347 346 346 346 345 345 345 345 344 344 343 343 343 341 340 339 338 337 335 332 328 326 326 327 328 328 328 330 331 331 331 332 332 332 332 330 328 326 323 324 323 324 325 326 327 328 329 339 335 337 337 335 334 333 333 332 331 331 331 331
341 342 343 343 343 343 343 341 339 341 342 344 345 346 348 348 348 348 348 348 348 347 347 347 346 346 346 346 345 345 345 345 344 344 343 343 342 342 340 340 339 337 336 333 330 327 325 325 325 325 325 327 329 329 329 330 331 330 330 329 328 326 324 322 321 321 321 322 324 326 327 331 340 335 335 336 333 332 332 332 331 331 331 331 330
333 338 341 341 341 343 343 344 339 334 337 338 339 341 344 346 347 348 348 347 347 347 347 346 346 346 346 345 345 345 344 344 344 343 343 343 342 341 340 339 338 336 334 332 329 327 324 323 323 322 323 325 327 326 327 328 329 328 326 325 326 325 323 321 319 318 319 321 322 323 326 331 337 335 336 335 334 332 332 332 331 331 330 330 330
328 331 331 333 335 341 343 343 341 342 342 336 335 337 340 342 344 344 344 345 345 346 345 345 345 344 343 342 341 340 342 343 343 343 342 341 341 340 339 338 337 335 334 332 329 327 325 323 321 321 322 324 323 324 324 325 325 324 323 322 322 322 321 318 316 316 317 320 318 322 325 335 335 334 336 334 333 331 331 331 331 330 329 329 329
317 319 320 323 326 333 340 343 342 343 342 341 342 339 335 338 339 340 341 343 343 341 341 342 340 340 339 337 337 336 335 336 336 337 339 337 336 333 337 337 336 335 333 332 329 327 326 324 322 319 318 318 318 319 320 320 320 320 321 319 317 317 317 315 313 312 313 315 317 320 325 334 334 334 334 333 330 331 331 330 330 328 328 329 329
316 316 316 316 317 320 324 335 339 342 340 341 341 339 333 332 336 337 337 340 339 338 337 336 332 331 330 329 328 330 329 331 328 332 332 334 332 331 334 337 335 334 333 331 329 327 326 324 322 320 318 317 318 318 318 317 318 319 318 316 314 313 311 311 310 308 307 310 315 317 329 332 335 333 333 332 329 329 331 329 329 329 329 328 328
314 314 314 315 316 317 319 320 322 331 339 340 341 340 337 331 331 329 331 331 335 335 333 326 322 321 322 322 325 335 334 332 331 330 325 331 324 326 332 335 335 334 332 331 329 327 326 325 323 322 321 319 317 314 315 318 318 317 315 311 308 305 307 309 307 305 303 304 308 314 327 330 333 332 332 332 330 328 328 328 327 328 329 329 329
309 310 312 314 314 316 317 318 319 320 325 339 341 341 337 335 339 336 335 332 330 326 328 331 328 328 322 326 333 332 333 334 331 328 331 329 328 324 327 332 334 333 331 331 330 328 328 327 326 324 322 320 314 301 300 307 312 313 310 306 298 299 302 306 305 303 303 302 305 315 320 326 330 334 333 335 335 335 334 333 333 332 329 332 329
308 309 310 312 313 314 315 317 318 319 319 331 340 341 338 339 340 338 335 331 332 331 334 332 333 332 330 333 332 333 334 334 331 330 331 325 329 323 326 330 332 331 330 331 330 329 328 327 326 324 321 317 306 301 300 298 300 306 303 298 295 296 298 301 303 302 302 305 302 317 316 319 322 327 329 331 334 333 334 334 334 335 335 334 334
306 306 308 312 312 313 314 316 317 318 318 323 334 341 339 340 340 338 335 335 333 333 335 334 334 335 335 334 334 334 335 335 327 324 326 330 327 322 324 324 326 326 325 326 328 329 328 325 323 320 315 310 307 304 302 301 303 304 303 300 298 297 297 297 298 301 301 304 306 316 317 318 320 321 323 325 329 329 330 332 333 333 334 335 335
305 306 307 310 311 312 312 315 316 318 318 318 329 338 340 339 339 336 334 335 334 333 334 334 332 333 334 332 334 333 334 334 331 330 331 331 329 327 326 326 327 326 322 320 320 318 317 313 313 312 310 309 307 306 304 305 306 307 306 305 303 302 300 300 300 298 300 301 306 316 317 318 319 321 323 324 323 323 324 325 328 330 331 333 332
305 307 306 308 310 311 311 313 315 317 318 317 320 328 337 338 337 337 336 335 335 334 334 333 333 333 332 330 330 331 330 331 330 329 329 330 329 328 328 328 328 326 324 322 319 318 316 313 313 311 309 309 307 307 305 306 308 307 308 307 306 304 303 301 301 300 299 301 304 316 317 317 319 322 322 324 324 323 323 324 325 326 326 329 331
306 307 308 307 309 309 311 312 313 317 319 318 323 326 329 333 335 337 336 334 333 331 329 328 328 328 328 327 329 328 328 328 328 327 327 327 328 327 327 327 327 326 325 325 322 318 315 313 312 310 308 309 308 307 307 306 307 309 308 307 307 305 304 303 302 301 300 300 304 314 316 316 318 322 323 324 323 323 322 323 324 325 325 325 325
308 308 307 306 307 309 311 312 315 318 317 320 328 326 327 330 330 328 331 328 328 327 327 326 325 325 326 327 327 328 327 325 326 327 328 328 326 326 325 327 327 326 325 325 322 319 316 313 311 309 310 309 309 306 307 307 307 307 308 307 307 306 304 303 302 301 300 299 301 308 315 316 318 319 321 322 323 323 323 324 324 324 324 325 325
307 308 307 308 312 314 315 316 316 317 320 326 326 326 326 327 327 326 326 323 325 325 325 324 324 323 324 324 326 326 326 325 326 326 326 326 327 327 327 326 325 325 324 323 322 319 317 315 312 309 308 310 309 308 306 307 307 308 308 307 306 305 304 303 302 301 299 299 299 304 312 314 315 316 318 321 322 323 323 323 323 323 324 324 324
306 308 308 310 313 315 318 319 318 324 325 325 325 324 324 323 323 323 322 321 322 322 322 321 322 322 321 322 322 324 324 324 323 322 322 321 321 321 321 321 321 322 322 320 319 319 318 316 314 312 311 311 311 310 309 308 308 308 308 308 306 305 303 301 300 299 298 298 298 299 307 310 311 314 316 317 320 321 322 321 322 323 324 325 324
307 307 308 310 313 315 315 318 318 321 323 323 322 321 321 319 319 319 319 318 317 317 317 318 318 319 320 320 320 320 320 320 320 319 319 318 318 318 318 319 319 320 320 319 318 318 316 315 314 312 309 307 306 307 308 306 306 306 307 306 305 303 301 299 298 298 297 297 297 297 299 305 307 309 311 315 317 319 319 320 321 323 324 325 325
305 306 308 310 312 313 313 315 316 318 319 319 317 316 314 314 314 313 312 312 312 312 312 313 313 315 317 318 318 318 317 317 317 316 316 315 314 314 315 316 315 315 315 314 313 312 310 309 308 307 304 303 301 301 302 302 302 303 304 303 301 300 298 297 297 297 297 296 296 296 297 298 302 304 306 309 314 315 316 317 319 320 322 323 324
306 307 307 309 310 311 311 312 314 314 314 314 313 313 311 311 310 310 310 310 309 310 309 309 310 312 313 315 316 316 316 315 314 313 312 313 312 312 312 312 313 312 311 310 309 309 308 307 303 303 302 301 300 300 301 300 300 300 301 301 298 297 297 296 296 296 296 296 296 296 295 295 294 299 300 302 306 310 313 314 315 318 319 320 322
304 307 306 307 309 310 310 310 310 310 310 310 310 310 310 309 309 309 308 308 308 308 308 308 308 309 310 311 312 313 312 312 311 310 310 309 309 309 309 310 311 310 308 307 305 305 304 303 301 300 300 299 298 298 298 298 298 299 299 299 297 296 296 295 295 295 295 294 294 294 294 293 292 291 291 297 300 305 308 310 312 315 316 317 318
305 305 305 307 308 308 309 308 308 308 308 308 308 307 308 309 307 308 308 306 306 306 306 307 307 307 307 307 308 308 308 308 307 307 306 306 305 305 305 306 307 307 304 303 301 300 299 297 298 297 297 297 296 296 296 296 297 298 298 297 296 295 294 293 293 293 293 293 293 293 293 293 292 291 290 288 293 298 303 306 308 310 314 315 315
305 306 306 306 306 306 308 307 307 307 306 306 306 306 306 305 304 305 305 304 303 303 303 304 305 306 306 306 306 305 305 305 305 305 304 304 303 303 303 303 303 303 302 300 298 296 295 295 295 295 295 294 294 294 294 295 297 297 296 295 295 294 292 292 292 292 291 292 291 291 292 292 292 291 292 288 287 291 298 302 304 306 308 310 313
305 305 305 305 305 305 306 305 304 304 304 303 303 303 303 303 301 301 300 301 301 300 301 301 302 302 303 304 304 303 302 302 303 303 302 301 301 301 302 302 302 301 300 298 297 296 294 294 292 293 293 291 292 292 294 295 296 295 294 294 294 294 292 291 290 290 291 290 290 290 290 290 291 294 289 288 287 287 292 297 300 301 301 305 308
306 306 305 305 304 304 304 304 303 303 302 301 301 300 300 300 299 299 300 298 298 298 298 299 299 299 300 300 302 302 301 301 301 301 300 299 298 298 298 299 300 300 299 297 296 295 293 291 290 289 289 289 290 291 293 295 295 294 293 293 293 293 292 291 290 289 288 287 287 288 288 288 288 288 289 288 287 287 287 290 295 296 297 301 304
306 305 305 304 304 303 303 302 302 301 301 300 299 299 298 298 298 297 296 296 296 296 296 296 297 297 297 298 298 298 298 299 298 298 297 296 296 296 296 296 297 297 296 296 295 294 292 290 288 287 288 287 287 289 292 293 293 292 293 293 293 293 292 292 290 288 287 286 287 288 288 287 287 286 287 288 287 287 286 286 286 287 288 297 301
305 304 304 304 303 302 302 301 301 301 300 299 299 298 297 296 295 295 294 293 294 294 294 294 295 295 295 295 295 294 295 295 295 295 295 294 294 294 293 293 293 294 293 291 290 290 290 288 287 286 286 287 287 287 288 292 291 291 291 290 291 291 291 291 290 289 288 286 285 285 285 285 286 286 285 286 287 286 286 286 287 286 287 291 297
304 304 304 303 303 302 302 301 301 301 300 299 299 298 296 295 294 293 292 292 292 292 292 292 292 293 293 293 292 292 293 293 293 293 292 292 292 292 291 290 290 289 288 287 287 287 288 287 286 287 286 286 285 285 285 288 291 289 289 288 288 289 290 288 287 287 287 286 285 285 284 285 285 286 284 285 286 286 286 285 285 286 286 286 288
302 303 302 303 303 303 302 301 301 301 300 300 299 298 296 295 293 292 292 291 291 291 290 290 291 291 291 291 291 291 291 291 291 291 290 290 290 289 288 287 287 287 287 287 286 287 286 285 285 285 285 285 283 284 285 286 287 287 287 287 287 287 288 287 286 285 285 285 285 284 284 284 284 285 284 284 284 285 285 285 285 285 286 286 286
302 302 302 301 301 301 300 300 300 299 298 298 297 295 295 294 293 291 290 289 290 290 290 290 290 290 290 290 290 290 290 289 290 289 289 288 287 287 286 286 286 287 286 285 285 285 284 284 284 283 283 283 284 285 284 284 284 284 285 285 283 285 287 284 285 285 284 283 284 283 284 283 283 283 283 283 283 283 284 284 284 284 285 285 286
301 300 300 299 298 298 298 298 298 297 297 296 295 294 293 292 292 291 290 289 288 289 288 289 289 289 288 288 288 287 287 287 287 286 286 286 286 286 286 286 286 286 286 285 285 284 284 284 283 284 282 282 282 283 284 284 283 284 282 283 282 280 277 279 281 282 281 282 283 282 283 282 282 282 283 282 282 282 282 283 283 283 284 285 285
299 299 299 299 298 297 297 297 296 295 295 294 293 292 291 289 289 289 289 288 288 288 287 286 286 287 286 286 285 285 286 286 286 286 286 285 285 286 286 285 285 285 286 285 284 284 283 283 283 283 282 282 281 281 283 284 283 284 282 280 279 278 279 279 278 277 279 281 281 281 283 281 281 282 281 281 281 282 282 282 282 283 283 284 285
299 299 298 298 297 296 296 296 295 295 293 293 292 291 290 289 288 287 286 286 284 284 284 283 283 284 284 283 285 285 285 285 285 285 286 286 285 285 285 285 285 285 285 284 284 284 283 283 283 283 282 282 282 281 280 283 283 283 282 282 281 278 279 279 276 275 277 279 279 280 279 280 280 280 280 280 280 281 282 281 281 282 283 283 284
298 298 297 296 296 296 296 295 295 294 293 292 292 291 290 290 289 288 287 285 283 282 282 283 284 283 284 284 284 284 284 285 284 284 285 285 285 285 285 284 284 284 284 284 283 283 283 283 283 283 283 284 281 280 280 280 280 282 282 281 282 281 279 275 277 276 273 276 277 279 278 280 280 279 280 280 280 280 280 281 280 281 282 283 284
298 297 296 296 295 294 295 294 294 293 293 292 291 290 289 287 286 285 285 284 284 283 283 283 284 284 284 283 283 283 284 284 284 284 284 284 284 284 284 284 283 283 284 283 282 282 283 283 283 282 282 282 281 281 279 279 279 279 281 280 280 279 278 278 277 277 277 275 275 276 276 279 278 279 279 279 279 280 280 280 280 281 281 281 282
297 296 295 295 294 294 294 293 293 293 292 291 290 288 288 286 286 285 284 284 284 283 284 285 284 284 283 283 283 283 283 283 283 283 283 284 284 283 283 283 283 283 283 283 282 282 281 281 281 282 282 281 281 281 280 278 279 278 278 278 278 277 277 277 277 277 276 275 274 274 276 278 278 276 278 277 279 280 280 279 280 281 281 281 281
296 296 294 293 293 293 292 292 291 290 290 289 288 287 286 286 285 284 283 283 284 283 283 283 282 283 282 282 282 282 282 283 283 283 283 283 283 283 283 282 282 282 283 282 282 281 281 281 281 281 281 281 280 280 280 279 279 278 278 278 278 277 277 277 277 275 274 275 275 274 275 275 274 276 278 276 278 279 279 279 279 279 280 280 281
293 293 293 292 292 292 291 290 289 288 288 287 287 286 285 285 284 284 284 283 283 283 282 282 282 282 282 281 281 282 281 281 282 282 282 282 282 283 282 282 282 283 282 281 281 281 281 281 281 280 280 280 280 280 280 279 279 279 278 278 278 278 278 276 276 276 275 274 274 274 275 275 275 274 275 277 279 278 277 278 277 278 279 279 280
Wind_Speed
1 6 4 6 9 9 11 13 13 12 12 13 13 12 12 13 12 13 13 12 13 13 14 13 13 13 13 14 13 14 16 17 17 16 16 17 17 18 18 19 19 18 18 18 18 17 17 16 16 15 15 14 14 14 14 14 14 14 14 14 14 14 14 14 13 12 12 13 15 17 16 16 17 17 18 18 19 19 18 18 15 11 8 11 14
5 3 4 5 7 10 9 12 13 12 12 12 12 12 12 12 12 13 13 13 13 13 15 14 13 13 13 13 14 14 15 16 16 16 17 17 18 17 18 19 18 18 18 18 18 17 16 16 15 15 14 14 14 14 13 13 13 13 13 13 13 14 13 13 12 10 11 12 13 15 16 17 17 17 18 18 18 18 17 17 17 9 7 16 17
4 4 3 6 6 6 8 11 12 13 12 12 11 11 11 11 11 11 12 12 12 12 13 14 14 13 13 13 14 14 15 15 15 16 16 16 16 17 17 17 17 17 17 18 17 16 16 15 15 14 14 14 13 13 13 13 13 13 13 13 13 13 13 13 12 9 11 12 12 15 14 16 17 17 17 18 18 18 17 17 17 16 10 19 17
7 4 3 6 8 7 6 8 10 12 12 11 11 11 11 10 10 10 11 11 12 12 12 14 14 13 12 13 13 14 14 15 15 16 16 16 16 15 15 16 16 17 16 17 16 15 15 14 14 14 14 13 13 13 13 12 12 12 12 13 13 13 12 13 12 11 11 12 12 10 7 7 9 16 18 18 18 18 17 17 17 18 18 17 19
7 5 4 4 5 7 7 9 11 12 12 11 11 11 11 10 10 10 11 11 11 12 11 13 13 13 12 12 13 13 13 15 15 15 16 15 15 15 14 14 15 16 15 15 15 14 14 13 13 13 13 13 13 13 12 12 12 11 12 13 13 13 13 13 11 11 12 12 10 7 6 6 6 15 17 17 18 17 16 17 17 17 17 18 17
6 5 4 5 4 6 8 8 10 12 12 12 11 11 11 11 10 11 11 11 11 12 11 12 12 12 12 12 12 12 13 14 13 14 14 15 14 14 14 14 15 14 14 14 14 13 13 13 12 12 13 12 12 12 12 12 11 11 12 13 13 14 14 13 11 11 12 11 8 6 6 6 6 8 18 17 17 17 16 16 16 16 16 17 16
8 5 5 5 4 5 9 10 11 10 12 12 11 11 11 11 11 11 11 11 11 11 11 11 11 11 11 11 12 12 13 13 13 13 14 14 14 13 13 13 13 13 13 13 13 13 13 12 12 12 12 12 12 12 12 12 12 12 12 13 13 14 14 13 11 11 11 7 5 5 6 6 6 5 17 16 16 16 16 16 15 15 15 15 16
5 5 5 5 5 6 9 10 11 12 12 11 11 11 11 10 11 11 10 11 11 10 10 10 11 10 11 11 11 12 12 13 13 14 14 14 14 13 12 12 13 13 13 13 13 13 13 12 12 12 13 12 12 12 13 13 13 12 13 13 13 14 13 13 12 12 10 6 5 5 5 5 5 4 14 16 16 15 15 15 14 14 15 15 13
5 5 5 5 5 9 9 10 11 12 12 12 11 10 10 11 9 10 11 11 10 10 10 10 10 10 10 10 10 11 12 12 13 13 13 12 12 13 13 13 13 13 13 13 13 13 13 13 13 13 13 13 13 13 13 13 13 13 13 13 13 14 13 13 11 11 7 5 6 6 6 5 4 4 13 15 16 15 15 12 10 14 14 14 13
5 5 5 5 6 10 10 10 11 12 11 11 11 10 11 10 10 11 11 11 10 10 10 10 10 9 10 10 10 10 11 11 13 13 12 12 13 13 13 13 12 12 13 13 13 13 13 13 12 12 12 13 13 13 13 14 14 14 13 13 14 14 14 13 12 8 6 5 5 5 5 7 3 4 12 15 16 16 14 14 11 10 10 14 14
5 5 4 5 7 10 11 10 11 11 11 11 10 10 11 10 10 10 11 11 11 10 10 9 9 9 9 10 10 10 10 11 12 12 12 11 12 13 13 13 13 13 12 12 12 12 12 12 12 11 12 12 12 13 13 14 14 14 14 14 15 15 14 12 9 6 6 6 6 5 6 9 3 3 12 14 15 15 13 13 13 12 13 14 14
5 5 4 3 8 11 12 11 11 10 9 9 10 10 10 10 9 10 10 11 11 10 10 9 9 9 9 9 10 11 11 11 12 12 11 11 12 12 13 13 12 12 11 11 11 11 12 12 11 11 11 11 12 12 13 13 13 14 14 15 16 16 14 12 7 6 6 6 6 5 4 3 3 6 14 13 14 13 13 13 13 13 13 13 13
4 5 4 3 5 8 11 11 11 11 9 9 9 9 10 10 9 9 9 10 10 10 10 9 9 9 9 9 10 10 10 12 12 13 12 12 13 12 12 12 12 11 12 12 12 12 11 11 11 11 11 11 11 12 12 13 13 13 14 15 15 15 13 11 6 7 6 6 6 6 6 4 3 12 13 13 13 12 12 13 12 12 13 12 12
5 5 4 4 4 7 10 10 10 11 10 9 10 8 9 9 9 9 9 9 9 10 9 9 9 9 9 10 10 10 10 11 12 12 11 12 12 12 13 12 11 11 12 12 12 11 11 12 12 11 12 12 12 13 13 13 13 14 15 15 14 13 12 9 7 6 6 7 6 7 7 6 4 13 14 14 13 12 11 12 12 12 12 12 12
6 5 5 4 4 4 8 9 8 10 10 8 7 8 8 9 8 7 7 6 7 9 8 9 10 9 9 10 10 9 9 11 11 11 11 11 11 12 12 12 12 12 12 12 12 12 12 12 12 12 12 13 13 13 14 14 14 15 15 15 14 12 10 6 6 6 6 6 5 6 6 6 8 12 14 14 14 12 12 12 12 12 12 12 12
5 5 5 4 3 4 4 6 8 8 9 9 7 6 7 7 7 7 6 5 6 8 7 8 9 8 9 9 9 9 10 11 11 11 11 11 12 12 11 12 12 12 12 12 12 12 12 12 12 12 13 13 14 15 15 15 15 15 16 15 13 12 11 8 6 6 6 6 5 5 6 6 9 12 14 13 14 12 12 12 11 11 12 13 12
6 5 6 4 3 2 4 4 5 8 8 8 8 5 5 7 6 7 6 6 6 6 7 8 9 9 9 8 8 8 9 10 10 11 9 10 12 12 11 12 12 12 12 12 13 13 13 13 13 13 14 14 14 15 16 16 16 16 16 16 14 13 12 10 7 6 6 6 5 6 6 6 7 13 13 13 13 13 11 11 10 11 11 11 12
7 6 6 4 3 0 2 5 5 5 5 7 7 6 4 6 8 8 7 7 7 7 8 8 8 8 8 7 7 8 8 9 9 8 8 9 11 11 11 12 12 11 11 12 13 13 13 13 13 14 14 14 14 15 15 15 16 15 15 15 14 13 12 10 7 6 6 6 6 5 6 10 11 12 13 14 14 12 12 11 11 10 10 11 10
8 8 7 7 6 4 2 4 3 4 5 3 4 5 5 5 7 8 8 8 8 8 8 7 8 8 8 7 7 8 8 9 8 8 8 9 10 10 10 11 12 11 11 12 12 12 12 12 13 13 14 14 14 14 14 15 14 14 14 13 13 10 10 7 6 6 6 6 6 6 6 14 11 13 13 14 13 12 11 12 12 10 10 12 11
6 7 6 5 5 6 7 2 1 5 4 4 3 3 4 5 4 5 4 7 9 9 9 8 9 8 8 8 7 6 6 7 9 7 8 10 10 8 10 11 11 11 11 11 11 10 10 11 12 13 13 13 13 13 13 14 14 13 12 12 11 11 7 6 6 6 6 6 6 6 9 14 13 11 12 13 12 11 10 9 11 11 12 12 11
5 6 6 6 5 6 6 5 6 5 0 4 4 5 5 8 5 7 6 4 8 9 10 10 8 7 7 8 7 6 5 5 6 5 8 7 9 10 10 10 11 10 10 11 10 10 10 10 11 11 11 11 9 11 11 12 12 12 12 11 11 8 6 6 6 6 6 6 7 7 14 13 14 10 11 11 11 10 8 8 7 8 10 10 10
5 5 5 6 6 6 6 5 4 6 5 2 3 3 3 5 4 4 4 6 5 8 7 6 5 5 6 6 4 4 3 5 4 5 5 7 8 10 10 10 10 9 9 10 9 8 9 9 10 11 11 10 9 7 6 9 11 11 11 11 9 7 7 7 7 6 6 7 7 10 17 14 14 14 12 13 13 13 14 13 12 11 9 10 8
5 6 5 6 5 5 5 6 5 5 5 3 3 5 5 5 4 4 4 4 4 6 5 6 4 4 4 3 3 3 3 3 4 5 5 8 7 9 10 9 9 9 9 8 8 9 9 9 11 11 10 9 7 6 6 7 7 10 10 8 7 7 7 7 6 6 6 6 6 13 16 16 15 14 13 13 14 14 13 14 13 13 14 11 10
3 3 5 4 5 6 6 5 5 6 4 4 2 5 6 5 5 5 4 3 4 5 5 3 2 4 3 3 3 4 5 5 5 8 7 6 6 8 10 9 8 10 9 6 7 8 10 9 9 9 7 5 6 6 6 6 6 6 6 7 7 6 6 6 7 6 6 6 7 15 17 17 17 16 14 13 13 13 14 16 16 15 15 16 13
1 2 4 5 5 5 6 6 6 3 5 3 3 3 6 4 5 4 4 3 3 2 3 4 3 3 3 2 3 3 4 4 5 4 4 5 4 4 5 4 4 4 5 3 4 5 6 5 5 6 6 6 6 6 6 6 6 6 6 6 6 6 6 6 7 7 7 6 6 14 16 18 17 17 16 16 15 15 15 15 15 15 16 15 14
2 4 3 4 5 6 4 5 6 5 3 4 4 3 4 5 4 4 4 3 4 4 4 5 4 4 3 3 4 4 3 3 3 2 3 5 5 5 5 5 4 5 4 4 4 5 5 5 4 5 5 6 5 5 4 5 6 6 6 6 6 6 6 6 6 6 7 7 8 15 15 18 19 18 17 17 18 18 18 17 17 16 15 17 15
3 3 3 3 4 5 5 4 5 5 3 3 3 3 2 3 3 3 5 5 5 5 6 5 5 5 3 2 4 3 3 3 3 3 3 3 5 4 5 4 4 4 3 4 4 5 5 5 5 4 3 4 5 4 5 5 4 5 5 6 6 6 6 6 6 7 7 8 9 16 16 18 19 19 19 19 19 19 18 18 18 18 18 18 18
1 2 3 3 4 5 5 4 4 3 1 0 4 4 4 5 6 6 6 7 8 6 6 5 6 6 4 4 3 4 3 3 3 3 3 3 3 3 2 3 3 3 3 2 5 5 5 5 4 3 3 4 5 4 5 4 5 5 5 5 6 6 6 7 7 7 7 7 8 16 17 19 19 19 20 20 20 19 19 19 19 19 19 19 19
2 2 3 3 4 4 4 4 2 1 4 4 6 5 5 6 6 7 7 4 9 6 5 6 7 5 6 6 5 5 5 5 5 4 5 4 4 4 4 3 4 3 4 4 3 5 5 4 4 3 3 6 6 5 4 5 6 6 5 5 6 7 7 8 8 8 7 7 8 13 19 20 20 20 20 21 20 20 20 20 20 20 20 19 19
2 2 3 4 4 5 4 4 2 6 6 6 5 6 5 7 7 8 6 6 8 8 6 5 6 6 6 7 6 5 5 6 6 6 6 6 6 7 6 5 5 4 5 6 4 5 6 5 3 5 6 7 7 6 6 6 5 6 6 7 7 7 7 8 8 8 7 7 8 9 19 19 22 21 21 20 21 20 21 21 20 20 20 19 19
2 3 3 3 4 4 4 4 4 6 6 7 6 7 6 7 7 7 6 7 7 8 6 5 7 6 7 8 7 7 6 6 6 6 6 6 6 7 7 6 7 6 5 6 6 6 6 6 6 6 6 7 7 6 6 6 7 7 7 8 7 8 8 8 8 8 8 8 7 8 11 17 20 21 22 22 21 21 21 21 21 20 20 20 20
2 3 3 3 3 5 4 5 5 6 9 8 8 8 7 8 7 6 7 7 7 7 6 5 5 6 9 8 7 6 7 7 7 7 7 7 6 7 7 7 7 7 7 7 7 7 7 7 7 6 6 7 6 6 6 6 7 7 7 8 8 8 7 8 8 8 8 8 8 8 8 10 15 20 21 22 22 22 21 22 21 21 21 20 20
0 1 2 2 4 4 4 5 6 7 10 9 9 8 7 8 7 6 6 7 5 7 7 5 7 8 8 8 6 7 7 7 8 8 8 8 7 8 8 7 6 8 8 9 9 7 6 6 7 5 6 7 8 6 5 6 7 6 7 7 8 8 7 8 8 8 9 8 8 8 8 9 9 13 18 20 21 22 22 22 22 21 21 21 20
1 1 2 4 3 3 3 4 6 8 9 8 8 8 7 8 7 6 6 6 6 8 7 5 7 8 7 7 6 7 7 6 7 8 7 8 8 9 9 7 6 8 9 7 8 6 7 8 5 6 6 7 7 5 6 7 6 7 8 7 7 6 8 9 8 8 8 8 7 8 7 8 8 8 9 14 19 21 22 22 22 22 21 21 21
1 2 3 4 4 4 3 5 5 8 9 8 9 7 8 6 7 7 6 6 7 8 7 7 8 7 7 7 7 7 7 7 6 8 7 7 8 8 8 6 5 6 8 7 8 7 8 8 5 6 5 6 6 6 6 6 7 8 7 7 7 7 8 8 8 8 8 7 8 7 7 7 8 8 8 8 10 17 20 22 22 23 22 22 21
2 3 4 4 5 5 5 7 6 10 8 8 9 9 9 7 5 8 6 6 6 8 8 7 7 7 7 7 7 6 6 7 7 7 8 7 7 8 7 6 6 7 7 7 7 8 7 8 7 4 6 6 6 7 5 7 7 8 7 7 7 8 8 8 8 8 6 8 8 8 7 8 8 8 8 8 8 10 19 19 21 21 22 22 22
3 4 5 5 6 6 6 7 9 10 9 10 10 10 9 8 7 7 8 8 7 8 8 6 6 7 6 6 6 7 6 6 7 8 9 8 7 7 7 7 6 8 7 7 8 6 7 7 7 7 6 6 7 6 7 7 8 8 7 7 7 8 8 7 7 6 7 8 7 7 8 8 8 7 7 8 8 8 12 18 18 19 20 21 22
4 5 5 6 7 6 6 7 8 8 9 8 9 10 9 8 8 9 9 9 8 8 7 6 7 6 6 6 6 7 7 7 8 8 9 8 7 8 7 7 6 7 8 8 8 7 7 7 9 8 7 7 7 7 7 7 7 8 8 8 8 8 7 7 7 7 8 8 8 8 6 6 8 7 7 7 8 8 8 11 15 15 17 19 21
4 5 6 6 6 6 7 7 8 9 9 9 10 11 10 10 9 9 10 9 8 7 7 7 6 7 7 6 7 6 6 8 8 7 9 8 8 8 7 6 6 8 8 8 8 8 8 8 8 7 7 7 6 5 5 7 8 8 8 7 7 8 6 7 7 8 7 6 7 6 6 8 6 7 8 7 7 8 9 8 8 8 9 17 19
5 6 7 7 7 7 7 7 7 8 9 8 7 9 8 8 10 9 10 8 7 7 7 7 7 7 6 7 7 7 6 8 8 7 9 8 8 8 9 8 7 8 9 10 8 7 8 9 8 7 8 8 8 6 5 6 8 9 8 7 6 7 8 7 8 7 6 7 6 6 8 6 7 7 8 7 7 8 8 8 7 8 7 10 16
5 6 6 7 8 8 9 9 7 7 7 7 7 7 9 9 8 9 10 6 6 7 7 7 7 6 7 7 7 7 7 8 8 8 9 9 9 8 8 8 7 9 9 8 6 6 6 6 6 7 9 10 8 7 5 3 8 7 6 6 6 5 6 8 8 7 7 6 6 8 7 8 8 8 7 7 7 8 8 8 8 7 8 7 9
5 5 6 7 8 8 8 9 6 6 6 6 7 6 4 4 10 8 9 7 6 7 7 7 7 6 8 8 7 7 8 8 8 8 8 9 9 8 8 7 8 8 8 6 7 7 7 6 4 9 7 9 6 6 6 1 4 5 6 2 3 3 3 7 8 5 5 6 6 8 7 7 8 7 7 7 7 8 8 8 7 8 8 8 7
6 6 5 7 7 7 7 7 6 5 5 5 6 7 7 6 8 8 8 9 7 6 7 6 6 8 8 8 7 7 8 8 8 8 9 8 9 9 8 7 6 6 9 9 8 9 7 7 6 6 7 4 6 6 8 4 3 1 1 5 1 0 2 4 3 5 5 5 6 8 7 8 8 6 6 6 7 8 8 7 8 8 8 8 8
5 5 5 6 6 6 6 7 7 6 6 6 8 8 9 10 10 10 9 8 8 7 8 7 7 9 10 7 7 6 6 8 7 7 8 8 8 9 7 8 7 6 8 9 8 8 7 6 5 5 4 8 5 7 7 7 4 2 1 1 1 2 2 3 3 3 2 4 6 6 6 6 6 7 7 7 7 7 8 7 8 7 7 8 8
5 6 6 6 6 7 7 7 7 7 7 9 10 11 12 11 11 11 11 12 8 7 9 8 6 7 8 7 6 4 6 7 7 7 8 8 7 7 8 8 9 7 8 9 8 6 5 4 4 5 4 8 6 4 8 7 9 4 5 2 1 3 1 2 3 2 3 4 5 5 6 7 7 6 6 7 7 7 7 8 7 7 8 8 8
6 5 5 6 7 7 8 7 7 7 9 10 11 10 11 14 11 11 9 8 8 6 8 9 6 7 7 3 5 4 6 7 6 7 7 7 8 8 8 9 8 7 7 7 6 6 6 6 4 5 7 5 9 6 5 6 8 9 7 4 1 3 1 1 3 2 5 1 2 4 4 8 6 7 5 6 6 7 6 7 7 8 7 7 7
6 6 6 7 7 7 8 8 8 8 8 9 8 8 8 7 10 11 11 11 11 3 4 4 7 6 6 6 5 5 5 8 6 6 7 7 8 8 8 8 8 7 6 7 7 7 6 5 4 7 5 4 5 7 5 1 3 7 7 8 9 6 3 3 0 0 4 5 3 3 4 8 8 7 7 8 7 8 7 5 7 7 7 6 7
8 7 7 8 9 8 9 9 8 9 7 7 7 4 9 8 9 9 9 10 11 9 8 6 5 6 7 6 6 6 5 5 7 7 7 7 8 8 7 7 8 6 6 7 7 6 6 6 6 6 6 6 6 8 5 3 6 1 3 6 5 5 5 6 2 1 1 2 5 4 1 4 4 5 4 6 8 8 8 8 7 7 6 5 6
8 9 8 7 7 7 8 9 9 8 7 7 6 4 6 10 11 11 10 7 10 8 7 6 7 6 9 5 6 6 6 6 7 7 6 6 6 7 7 7 8 7 6 7 6 6 7 7 6 7 7 7 6 4 7 5 5 2 3 4 5 5 4 4 3 3 2 1 5 4 8 1 1 3 5 3 5 8 7 6 5 6 6 6 6
7 7 7 7 7 7 8 10 8 6 7 7 7 7 7 10 11 12 15 11 9 8 7 8 7 6 9 6 6 6 6 6 6 5 6 5 6 6 7 7 7 6 6 7 7 7 6 7 6 6 6 7 4 6 7 5 6 4 5 3 5 3 5 5 5 4 2 2 1 6 5 9 11 6 4 3 6 7 6 6 6 5 6 6 6
6 8 8 8 8 9 9 10 8 6 7 9 9 9 7 8 11 13 15 15 12 12 11 8 7 7 9 7 6 6 5 6 5 5 5 5 6 5 6 6 5 5 6 6 6 7 6 7 6 6 6 7 6 7 6 5 6 6 6 6 6 5 3 2 1 2 2 1 3 4 5 3 4 8 3 6 8 6 5 5 3 4 5 5 5
Wind_Direction
244 156 159 149 168 140 134 128 123 119 114 109 106 102 99 99 97 89 89 91 91 91 93 95 98 98 97 92 88 92 93 90 86 84 82 82 81 79 75 70 68 65 62 59 57 56 54 52 49 48 47 46 45 43 42 39 36 33 35 36 37 37 34 32 30 35 41 47 53 57 58 58 60 62 60 54 51 48 45 45 45 34 36 38 45
173 194 146 150 155 139 140 127 126 119 114 109 104 103 101 99 98 95 93 95 93 91 91 92 97 100 100 98 99 97 94 93 92 89 87 84 83 79 75 71 68 65 63 61 58 55 53 53 52 48 46 45 43 42 40 40 36 31 30 30 32 34 33 30 32 41 55 47 46 53 52 60 61 61 60 55 50 45 42 41 39 40 32 39 41
133 151 168 147 149 133 136 131 126 120 115 110 106 103 101 99 99 98 102 104 104 103 96 89 90 100 102 101 99 99 99 97 96 95 92 90 87 83 79 74 69 64 61 59 57 54 52 52 52 51 48 46 45 43 41 40 37 32 27 27 29 32 32 33 45 60 60 50 43 49 45 49 55 59 59 56 52 46 42 39 37 35 31 35 37
142 161 158 146 136 140 146 129 122 120 115 111 109 108 105 102 102 103 98 97 98 95 97 98 93 95 99 100 101 99 98 100 100 99 96 94 92 88 82 76 70 65 62 60 58 56 55 55 54 54 52 50 48 47 46 43 40 35 27 25 28 29 30 34 47 67 65 59 53 52 52 49 49 59 58 55 51 47 42 40 38 35 33 32 30
141 149 153 139 137 157 133 135 134 124 120 117 115 114 112 109 105 105 104 99 98 98 98 101 94 95 98 100 99 101 103 99 101 102 102 97 93 89 83 78 73 69 64 62 59 55 55 54 55 57 56 55 53 51 50 49 46 38 29 25 27 28 30 34 45 63 65 58 54 51 47 48 47 56 59 57 53 48 44 41 39 37 32 30 29
140 145 146 139 142 130 140 135 134 131 126 125 122 119 118 117 113 107 108 107 102 101 98 102 97 91 97 98 101 102 99 99 102 101 101 98 90 84 83 82 79 74 67 64 59 55 52 52 54 56 57 57 57 57 54 53 50 43 32 31 31 27 28 34 52 65 64 56 49 53 47 47 52 54 59 56 55 50 45 43 41 39 36 32 27
146 148 144 144 141 141 148 140 141 136 131 130 129 126 125 123 120 115 112 111 107 105 106 108 104 103 98 97 101 103 104 104 101 99 99 94 91 86 82 81 80 74 70 65 60 56 53 50 51 52 54 55 56 57 58 56 53 47 41 39 35 29 31 41 59 70 70 60 57 53 52 49 48 56 61 57 55 52 47 44 41 39 38 36 31
139 147 150 146 142 151 142 146 146 145 139 135 134 133 132 128 122 120 113 109 110 107 109 108 103 103 99 98 100 104 107 107 106 104 99 97 94 90 89 85 79 73 70 65 61 57 53 50 49 50 50 51 51 54 56 56 54 52 47 43 37 36 41 55 66 76 72 67 61 56 52 49 47 58 68 64 59 55 49 44 41 40 38 36 33
156 153 150 149 150 150 150 149 153 149 146 141 139 139 135 129 124 122 121 116 115 114 112 112 104 103 100 95 99 103 106 108 105 104 103 99 99 98 90 83 76 71 66 63 60 58 56 53 50 49 49 46 47 49 53 54 54 52 50 45 42 44 47 62 68 78 72 69 65 62 61 58 51 53 69 70 64 58 56 51 39 39 38 36 34
163 151 150 150 155 154 151 155 153 151 148 145 143 144 139 132 130 129 127 125 119 116 115 114 108 99 97 96 96 102 105 106 103 104 104 100 99 98 91 84 76 69 64 62 62 60 59 58 56 55 53 50 47 47 50 53 54 52 49 47 46 48 55 58 67 67 67 65 65 68 72 75 62 63 67 71 69 63 60 55 52 45 44 42 35
159 151 155 158 161 154 154 156 155 156 157 150 149 146 141 136 136 134 132 130 125 125 122 118 114 108 102 101 104 104 108 110 110 110 105 102 101 98 90 85 79 73 68 65 62 62 64 63 63 63 63 61 57 56 55 55 54 50 46 46 46 51 59 61 61 61 57 54 48 36 60 61 44 43 60 67 68 65 61 57 51 48 47 44 40
159 147 157 169 164 157 158 158 156 157 158 152 153 148 144 141 140 140 137 134 133 129 124 123 117 115 114 112 111 113 115 114 115 115 113 109 104 97 93 89 87 83 77 69 64 64 63 64 64 64 65 66 67 66 66 62 57 53 51 50 53 57 59 58 57 52 51 44 42 35 18 23 31 42 56 65 66 63 61 58 52 50 48 43 43
135 135 133 142 155 161 156 156 156 159 162 156 152 149 145 146 145 143 143 139 137 133 131 127 125 122 117 115 116 115 121 123 127 127 127 121 111 106 102 99 93 87 79 71 64 62 62 60 59 59 57 58 62 66 67 63 58 56 55 57 63 66 65 61 61 54 47 39 33 26 25 4 26 50 56 59 58 56 54 58 55 52 49 46 45
112 119 125 138 146 156 153 155 160 162 158 158 155 151 148 149 149 148 146 141 137 134 134 133 123 117 114 114 118 118 126 127 129 128 125 118 114 108 101 96 91 83 75 71 66 62 60 59 57 54 52 50 52 58 58 54 54 56 57 61 66 70 69 63 58 57 51 40 32 22 16 3 15 50 51 52 48 49 48 53 54 51 51 49 47
113 104 110 107 124 142 154 151 158 157 159 158 152 148 151 155 152 150 148 137 132 132 130 127 121 117 116 116 120 122 123 128 133 132 127 119 117 112 108 104 95 85 79 74 70 65 63 60 57 54 51 48 49 51 48 45 46 48 53 60 65 68 72 69 60 56 51 43 31 23 14 1 19 44 53 52 50 46 50 52 52 51 50 50 44
83 99 90 72 93 109 139 156 155 164 160 158 150 152 150 154 154 150 147 134 125 128 122 120 121 117 116 118 123 126 129 132 136 131 125 126 121 115 108 99 91 86 83 80 75 69 64 61 58 55 53 51 51 48 44 45 44 43 46 50 55 59 62 65 56 49 45 39 29 22 9 357 1 45 54 52 52 44 45 50 48 47 45 50 44
57 56 66 56 73 74 139 159 156 158 153 153 149 161 152 149 154 147 146 135 130 124 124 125 127 125 122 120 121 121 128 133 136 132 130 126 122 111 104 98 92 87 85 83 77 71 67 64 61 59 57 57 55 50 47 44 41 40 44 45 48 49 48 49 50 38 38 32 27 15 0 356 15 52 49 51 47 45 45 46 44 42 45 43 45
42 55 52 50 40 25 200 148 142 156 143 146 151 158 173 149 151 147 152 142 136 125 128 130 130 123 118 118 121 125 130 134 135 129 128 124 117 111 107 103 99 95 91 86 82 76 73 69 66 63 63 62 57 54 51 47 43 41 43 47 47 47 45 48 45 32 31 27 18 8 6 353 33 47 47 44 42 41 48 42 41 37 35 40 39
43 41 35 30 11 342 48 95 144 152 143 144 153 159 162 162 158 156 158 151 141 128 127 125 122 123 125 122 123 130 132 128 125 123 115 113 112 107 108 109 107 103 97 92 89 86 81 76 72 68 65 63 58 55 54 51 48 45 44 50 50 49 48 47 43 34 26 21 8 8 359 6 30 52 49 42 41 42 42 41 45 41 29 30 25
47 34 29 20 9 20 14 345 30 153 151 151 149 151 152 160 126 131 152 159 144 135 130 127 128 124 119 114 113 110 112 122 130 129 123 116 117 119 118 116 115 109 103 100 96 94 88 82 75 72 66 60 55 52 52 53 50 45 45 48 53 53 48 48 46 40 29 17 9 359 3 9 12 41 49 44 43 38 31 32 30 29 25 23 19
21 27 23 7 6 20 11 10 357 12 145 157 169 170 181 173 147 148 144 198 149 139 130 127 123 120 119 123 124 131 132 130 136 129 121 123 126 125 122 122 119 115 110 103 101 100 97 88 83 75 66 56 49 48 40 43 44 45 45 46 46 46 44 47 43 38 31 20 11 355 9 9 6 30 39 36 33 33 34 20 20 14 18 17 16
2 358 7 6 7 3 359 359 355 2 348 238 173 173 146 189 161 150 176 173 156 130 131 127 129 123 130 138 133 144 117 143 133 134 130 131 137 134 128 128 125 123 113 107 106 101 92 85 82 77 70 65 60 54 44 37 39 43 44 47 48 43 39 42 41 31 29 20 17 10 16 13 8 9 22 23 27 23 11 20 16 6 14 10 9
10 357 352 358 358 346 356 351 350 347 333 329 203 173 176 179 167 155 166 147 148 141 124 135 141 136 151 145 125 137 144 102 130 156 148 146 141 134 130 132 133 122 119 116 113 98 82 75 79 78 72 67 62 60 53 43 40 40 43 44 49 44 44 42 40 36 25 17 17 18 22 20 14 10 11 7 18 14 11 14 21 17 16 20 6
346 349 327 337 357 354 342 334 338 337 332 330 271 180 172 183 171 173 169 141 157 151 139 123 122 132 122 130 153 158 158 160 168 167 144 146 144 139 137 132 136 130 130 121 102 83 72 63 66 67 62 59 62 56 55 46 46 46 46 45 46 43 46 42 42 35 28 18 14 19 23 24 21 20 15 10 13 10 7 4 10 15 16 18 15
314 305 353 344 342 342 339 334 334 335 322 320 321 209 181 178 168 171 164 144 122 101 115 117 130 106 107 132 150 148 160 152 148 162 157 140 133 124 111 119 127 111 100 82 79 76 77 71 57 60 62 65 59 50 52 48 42 46 48 44 46 41 40 36 39 37 26 20 15 18 20 25 25 26 24 24 22 17 14 8 6 7 6 14 23
352 33 343 331 334 329 327 320 324 318 309 338 307 274 178 175 158 148 142 126 92 99 90 83 77 84 115 116 103 118 124 124 116 82 119 151 146 145 146 144 146 136 119 107 97 91 83 75 69 69 63 68 67 64 56 57 52 48 47 46 47 44 40 37 39 39 28 22 13 14 16 24 28 30 30 31 30 26 22 20 17 14 10 6 18
12 6 335 323 319 320 318 324 313 309 348 320 309 23 79 92 111 132 135 107 94 87 77 73 70 66 59 56 107 104 106 118 114 129 130 122 141 154 151 147 143 135 119 129 112 99 90 79 68 66 66 78 70 66 64 50 52 58 51 50 49 49 44 42 41 40 31 29 23 17 23 30 31 30 32 32 30 26 25 22 20 21 18 17 14
15 347 327 312 307 313 305 309 295 300 326 278 67 60 68 88 87 77 76 104 89 74 78 82 77 63 57 51 74 83 86 64 85 98 116 105 100 93 91 104 92 81 72 58 93 90 83 76 77 70 78 77 82 70 68 52 47 52 56 47 49 46 45 43 42 39 40 40 36 31 34 35 36 32 31 29 27 29 28 26 24 23 21 20 17
37 343 324 336 331 322 312 325 312 139 120 104 83 78 78 83 80 79 72 63 91 72 67 76 72 60 53 52 40 73 58 61 62 59 73 77 84 82 67 61 67 72 91 64 77 88 86 84 75 79 71 56 48 37 58 49 40 37 45 46 43 42 42 47 45 46 44 44 39 34 38 39 39 37 34 32 32 31 32 29 26 24 23 21 20
9 352 345 339 327 325 343 5 38 104 106 97 98 85 79 83 77 81 78 68 76 75 46 62 75 65 58 52 44 58 63 68 65 53 69 70 72 67 64 53 56 51 69 69 48 72 80 71 56 43 54 55 50 34 54 45 35 39 35 43 40 49 56 56 52 50 47 43 40 37 37 38 40 38 37 35 33 33 32 30 26 25 24 23 22
19 7 349 338 327 347 15 31 57 91 96 91 87 79 75 75 73 76 78 70 66 74 52 47 66 67 70 62 52 52 69 65 71 70 68 66 64 75 72 65 55 43 63 67 55 64 62 63 55 62 66 63 55 42 48 53 40 34 33 46 51 57 56 57 57 54 51 45 43 40 35 34 37 35 34 34 35 34 33 30 28 26 24 23 22
35 359 345 324 2 13 28 39 60 80 90 85 80 76 73 73 70 77 72 73 71 75 73 61 78 77 66 62 60 59 72 72 71 72 75 70 67 69 69 74 73 62 57 63 63 62 66 60 56 56 65 67 61 45 35 54 47 38 44 55 59 62 60 61 58 53 51 47 42 41 39 33 31 34 31 31 32 32 32 31 29 28 26 24 23
49 304 321 19 26 21 33 43 69 78 87 88 85 79 81 76 77 75 81 86 78 85 72 64 68 68 68 68 66 72 72 83 79 77 79 75 72 71 69 65 74 80 72 68 66 58 61 59 50 43 50 61 55 42 36 54 49 40 56 56 66 66 65 62 57 53 51 49 46 44 44 39 36 29 27 28 26 30 31 31 29 29 28 27 25
137 18 45 49 33 42 43 59 62 79 86 91 93 89 83 88 73 76 84 92 85 81 78 75 77 70 72 67 71 71 79 80 90 86 80 83 77 71 71 61 61 78 78 69 68 59 59 56 42 52 42 52 55 37 46 47 43 58 58 62 69 66 66 61 59 56 54 50 46 46 39 40 36 34 28 24 24 25 27 29 29 28 28 28 27
132 85 79 84 68 61 53 68 66 88 90 93 91 93 96 74 94 71 62 86 88 87 82 69 69 75 75 72 70 74 76 80 78 92 85 84 82 81 74 73 69 78 79 73 79 69 65 57 37 55 56 51 56 46 50 57 61 63 61 68 72 70 65 68 61 57 53 52 51 44 42 39 33 32 29 26 20 20 22 23 26 26 25 26 28
109 112 104 92 84 78 75 90 77 88 83 91 96 91 79 87 83 89 77 62 80 84 74 70 73 77 77 77 71 72 75 82 84 83 85 78 81 79 74 75 72 72 71 72 69 68 67 63 44 41 69 48 50 46 37 66 68 69 66 70 69 67 67 61 61 58 52 54 48 44 41 38 35 32 27 26 22 15 19 19 19 20 18 19 23
122 121 113 109 95 92 86 92 98 92 92 91 92 94 92 87 74 83 77 72 66 72 73 68 72 72 67 73 72 74 69 75 81 84 87 82 77 79 71 69 72 79 76 71 66 62 64 73 55 42 55 70 55 53 51 62 72 70 73 69 64 67 61 59 56 59 54 52 44 43 40 35 34 31 27 25 22 16 10 14 16 15 12 11 17
115 116 116 116 111 107 107 103 100 100 101 97 100 98 96 93 87 80 70 66 63 66 67 68 69 68 67 62 61 73 77 79 78 84 88 79 77 76 69 65 74 78 75 68 64 58 60 61 67 45 43 59 56 60 70 73 77 76 68 70 65 68 64 61 60 53 53 48 42 39 34 34 33 27 26 24 23 14 11 7 9 10 8 8 12
124 124 119 115 110 110 110 106 109 112 105 107 105 98 97 90 81 80 79 68 59 59 64 66 62 65 64 61 64 68 70 75 75 76 87 84 79 73 73 66 72 78 77 70 62 57 59 54 63 60 55 60 72 57 69 87 81 80 75 69 76 73 69 65 59 55 49 46 44 34 35 31 28 23 21 22 15 16 10 6 5 6 359 3 8
133 131 129 126 119 116 114 113 115 117 117 115 112 105 101 99 100 90 77 68 65 64 59 61 60 63 56 59 60 63 60 71 74 75 82 83 82 76 76 66 67 75 76 70 59 53 56 60 49 58 63 56 45 37 33 76 82 78 83 71 68 79 72 69 60 54 49 40 33 33 35 22 29 19 17 16 13 11 8 3 3 0 360 357 2
136 141 137 134 137 134 131 126 132 130 127 129 119 118 120 111 86 90 94 86 81 75 67 59 63 57 61 61 60 63 67 73 71 78 81 83 80 80 79 72 71 75 76 75 73 69 59 72 78 54 63 64 33 9 8 24 99 76 65 76 59 44 76 73 63 52 46 37 32 38 28 29 21 18 6 10 14 7 6 2 357 355 359 358 356
150 139 143 141 141 137 133 134 139 135 125 121 119 107 87 103 121 114 108 97 89 81 82 67 68 65 61 60 63 65 69 75 76 78 82 86 91 84 76 78 78 80 82 82 70 61 56 50 60 71 43 73 54 13 351 63 32 125 119 83 44 12 52 63 62 43 47 41 40 41 26 27 20 11 360 11 8 7 2 0 355 356 354 355 358
148 137 134 131 129 133 137 136 131 119 104 105 104 105 104 100 102 109 107 101 71 77 83 80 76 77 67 62 61 66 75 74 78 82 87 85 89 89 82 81 74 88 85 69 63 55 48 49 44 91 87 56 81 30 23 34 135 131 133 88 358 355 286 11 21 32 35 41 43 44 32 21 10 6 1 6 6 1 358 357 356 356 352 352 353
146 135 137 129 124 128 128 128 123 113 109 100 101 96 95 95 87 99 91 89 111 98 86 75 77 79 69 60 53 61 69 82 78 84 87 85 90 93 95 85 80 76 88 85 69 64 52 49 52 48 85 75 41 35 28 29 83 117 28 112 184 120 358 328 345 296 349 60 44 45 34 22 5 359 2 5 358 356 352 351 355 352 352 351 350
159 148 146 143 135 134 129 126 125 124 117 120 119 119 111 99 101 93 97 96 79 92 93 67 65 77 82 59 54 56 74 82 81 83 91 92 89 94 92 87 82 73 81 85 82 81 75 73 73 79 58 113 85 78 29 30 41 33 138 97 23 35 183 260 347 291 345 26 10 35 24 15 8 359 3 352 349 355 350 350 350 350 350 353 353
162 153 145 136 134 130 128 123 115 119 126 130 136 136 134 131 129 122 118 110 106 107 111 122 108 93 93 96 66 60 79 80 77 82 85 91 88 86 90 91 88 84 84 94 99 89 75 74 56 87 79 50 113 93 74 29 44 36 44 75 141 161 187 278 75 316 342 82 336 17 27 5 358 357 355 354 354 342 352 346 348 345 348 354 353
157 142 136 138 137 136 130 129 132 129 134 140 144 139 128 126 130 133 134 130 123 98 101 102 114 104 99 90 83 63 62 84 75 79 83 84 88 86 88 91 93 94 96 97 88 85 81 75 64 71 69 85 86 89 86 44 34 39 38 52 60 53 91 109 85 34 349 321 352 6 4 10 346 353 352 349 345 347 342 350 342 342 341 357 358
145 139 142 143 145 149 141 139 137 139 144 142 141 152 132 128 117 113 117 122 124 138 132 126 107 113 102 94 89 74 65 71 84 75 75 81 89 87 91 93 94 91 92 86 94 97 90 69 70 79 74 64 79 102 91 36 99 47 33 65 67 60 59 62 84 142 209 295 311 326 4 10 342 320 342 344 339 343 333 337 345 341 338 358 3
148 146 152 149 143 144 143 138 142 142 140 142 138 135 133 131 126 123 112 112 119 129 126 119 116 119 103 97 91 87 77 64 66 76 73 80 84 95 94 94 93 90 92 92 88 86 88 93 81 73 75 65 68 90 90 74 74 108 81 43 62 62 56 70 61 61 98 357 293 341 320 320 282 293 341 342 336 329 323 324 329 336 340 0 12
149 141 140 138 140 141 145 139 139 144 143 135 134 130 135 131 128 131 128 131 130 128 127 126 123 125 108 104 94 87 81 78 68 71 81 76 85 86 88 91 95 98 94 100 99 91 88 84 85 92 92 88 73 80 93 95 85 70 75 106 70 26 35 24 26 12 14 77 343 312 330 339 343 319 316 337 331 311 312 324 334 336 341 358 1
144 144 143 145 145 147 152 144 146 147 145 140 139 138 142 141 135 140 139 141 144 141 136 130 129 123 115 109 103 99 91 92 90 74 76 84 84 82 92 95 96 99 101 99 98 99 94 94 93 89 83 93 91 94 87 78 85 77 65 72 85 94 125 112 69 46 97 16 351 302 323 314 280 308 296 342 323 306 301 309 317 322 338 4 3